Satellite: NOAA-12 Catalog number: 21263 Epoch time: 14016.55745411 Element set: 130 Inclination: 098.6791 deg RA of node: 045.0439 deg Eccentricity: 0.0012924 Arg of perigee: 322.1744 deg Mean anomaly: 150.5610 deg Mean motion: 14.25618273 rev/day Decay rate: 5.4e-07 rev/day^2 Epoch rev: 17895 Checksum: 278
Satellite: MET-3/5 Catalog number: 21655 Epoch time: 14016.49027605 Element set: 881 Inclination: 082.5567 deg RA of node: 103.6092 deg Eccentricity: 0.0012194 Arg of perigee: 318.9957 deg Mean anomaly: 041.0248 deg Mean motion: 13.17048650 rev/day Decay rate: 4.31e-06 rev/day^2 Epoch rev: 7801 Checksum: 290
Satellite: MET-2/21 Catalog number: 22782 Epoch time: 14016.15670477 Element set: 951 Inclination: 082.5510 deg RA of node: 293.9324 deg Eccentricity: 0.0021606 Arg of perigee: 334.7271 deg Mean anomaly: 133.5366 deg Mean motion: 13.83723606 rev/day Decay rate: 7.2e-07 rev/day^2 Epoch rev: 2909 Checksum: 291
Satellite: OKEAN-4 Catalog number: 23317 Epoch time: 14016.85241578 Element set: 431 Inclination: 082.5371 deg RA of node: 209.7461 deg Eccentricity: 0.0019891 Arg of perigee: 237.8259 deg Mean anomaly: 255.1026 deg Mean motion: 14.84981510 rev/day Decay rate: 1.502e-05 rev/day^2 Epoch rev: 4064 Checksum: 292
Satellite: NOAA-14 Catalog number: 23455 Epoch time: 14016.51026475 Element set: 608 Inclination: 098.7880 deg RA of node: 102.5872 deg Eccentricity: 0.0010575 Arg of perigee: 111.1918 deg Mean anomaly: 009.6859 deg Mean motion: 14.13942849 rev/day Decay rate: 1.06e-06 rev/day^2 Epoch rev: 98251 Checksum: 309
Satellite: NOAA-15 Catalog number: 25338 Epoch time: 14016.51007407 Element set: 38 Inclination: 098.7432 deg RA of node: 010.7555 deg Eccentricity: 0.0010034 Arg of perigee: 223.8739 deg Mean anomaly: 296.7447 deg Mean motion: 14.25327563 rev/day Decay rate: 1.57e-06 rev/day^2 Epoch rev: 81523 Checksum: 291
Satellite: RESURS Catalog number: 25394 Epoch time: 14016.15435091 Element set: 566 Inclination: 098.3930 deg RA of node: 347.0997 deg Eccentricity: 0.0001390 Arg of perigee: 037.2657 deg Mean anomaly: 091.0189 deg Mean motion: 14.24361167 rev/day Decay rate: 3.7e-07 rev/day^2 Epoch rev: 80667 Checksum: 304
Satellite: FENGYUN1 Catalog number: 25730 Epoch time: 14015.87221760 Element set: 58 Inclination: 098.9011 deg RA of node: 338.0799 deg Eccentricity: 0.0026585 Arg of perigee: 174.1892 deg Mean anomaly: 239.6571 deg Mean motion: 14.11230646 rev/day Decay rate: 1.540e-05 rev/day^2 Epoch rev: 75603 Checksum: 300
Satellite: OKEAN-0 Catalog number: 25860 Epoch time: 14016.02210832 Element set: 149 Inclination: 098.0228 deg RA of node: 341.0149 deg Eccentricity: 0.0001632 Arg of perigee: 127.6028 deg Mean anomaly: 274.3864 deg Mean motion: 14.74910527 rev/day Decay rate: 7.14e-06 rev/day^2 Epoch rev: 77972 Checksum: 282
Satellite: NOAA-16 Catalog number: 26536 Epoch time: 14016.64211270 Element set: 526 Inclination: 099.0124 deg RA of node: 076.1993 deg Eccentricity: 0.0009812 Arg of perigee: 250.6004 deg Mean anomaly: 227.8438 deg Mean motion: 14.12973167 rev/day Decay rate: 2.00e-06 rev/day^2 Epoch rev: 68671 Checksum: 289
Satellite: NOAA-17 Catalog number: 27453 Epoch time: 14016.52708122 Element set: 430 Inclination: 098.3117 deg RA of node: 024.2608 deg Eccentricity: 0.0010598 Arg of perigee: 257.2255 deg Mean anomaly: 255.7465 deg Mean motion: 14.24674554 rev/day Decay rate: 1.40e-06 rev/day^2 Epoch rev: 60109 Checksum: 284
Satellite: NOAA-18 Catalog number: 28654 Epoch time: 14016.61243753 Element set: 919 Inclination: 099.1308 deg RA of node: 353.2234 deg Eccentricity: 0.0013747 Arg of perigee: 332.9811 deg Mean anomaly: 155.8844 deg Mean motion: 14.11929318 rev/day Decay rate: 1.41e-06 rev/day^2 Epoch rev: 44617 Checksum: 309
Satellite: NOAA-19 Catalog number: 33591 Epoch time: 14016.46835294 Element set: 89 Inclination: 098.9295 deg RA of node: 322.1006 deg Eccentricity: 0.0014049 Arg of perigee: 183.7774 deg Mean anomaly: 313.7074 deg Mean motion: 14.11621202 rev/day Decay rate: 2.88e-06 rev/day^2 Epoch rev: 25458 Checksum: 309
/EX SB KEPS @ AMSAT $ORB14016.M Orbital Elements 14016.MISC
HR AMSAT ORBITAL ELEMENTS FOR MANNED AND MISCELLANEOUS SATELLITES FROM WA5QGD FORT WORTH,TX January 16, 2014 BID: ORB14016.M TO ALL RADIO AMATEURS BT
Satellite: HUBBLE Catalog number: 20580 Epoch time: 14016.27820477 Element set: 417 Inclination: 028.4712 deg RA of node: 315.1102 deg Eccentricity: 0.0003272 Arg of perigee: 101.8188 deg Mean anomaly: 028.2971 deg Mean motion: 15.04523215 rev/day Decay rate: 2.717e-05 rev/day^2 Epoch rev: 10181 Checksum: 247
Satellite: ISS Catalog number: 25544 Epoch time: 14016.89378796 Element set: 479 Inclination: 051.6509 deg RA of node: 129.4744 deg Eccentricity: 0.0006206 Arg of perigee: 036.6372 deg Mean anomaly: 062.6346 deg Mean motion: 15.50453016 rev/day Decay rate: 1.0312e-04 rev/day^2 Epoch rev: 86785 Checksum: 312
Satellite: CO-58 Catalog number: 28895 Epoch time: 14016.10566503 Element set: 672 Inclination: 097.8464 deg RA of node: 225.7826 deg Eccentricity: 0.0018647 Arg of perigee: 128.6292 deg Mean anomaly: 231.6583 deg Mean motion: 14.61496101 rev/day Decay rate: 9.22e-06 rev/day^2 Epoch rev: 43803 Checksum: 326
Satellite: FALCON Catalog number: 30776 Epoch time: 14016.34171339 Element set: 781 Inclination: 035.4316 deg RA of node: 331.8293 deg Eccentricity: 0.0001936 Arg of perigee: 289.1526 deg Mean anomaly: 204.3115 deg Mean motion: 15.13241219 rev/day Decay rate: 8.493e-05 rev/day^2 Epoch rev: 37769 Checksum: 294
Satellite: MAST Catalog number: 31126 Epoch time: 14015.95980914 Element set: 949 Inclination: 097.8998 deg RA of node: 004.9603 deg Eccentricity: 0.0094114 Arg of perigee: 109.1090 deg Mean anomaly: 310.7608 deg Mean motion: 14.54901056 rev/day Decay rate: 6.97e-06 rev/day^2 Epoch rev: 35825 Checksum: 316
Satellite: CAPE1 Catalog number: 31130 Epoch time: 14016.14972625 Element set: 954 Inclination: 097.9197 deg RA of node: 001.6280 deg Eccentricity: 0.0101161 Arg of perigee: 125.3072 deg Mean anomaly: 235.7637 deg Mean motion: 14.53930343 rev/day Decay rate: 8.15e-06 rev/day^2 Epoch rev: 35771 Checksum: 278
Satellite: COMPASS Catalog number: 32787 Epoch time: 14016.12271526 Element set: 832 Inclination: 097.7238 deg RA of node: 073.9604 deg Eccentricity: 0.0013350 Arg of perigee: 327.3588 deg Mean anomaly: 032.6802 deg Mean motion: 14.86649096 rev/day Decay rate: 2.862e-05 rev/day^2 Epoch rev: 30958 Checksum: 316
Satellite: AAUSAT2 Catalog number: 32788 Epoch time: 14016.12602088 Element set: 816 Inclination: 097.7250 deg RA of node: 074.7818 deg Eccentricity: 0.0012936 Arg of perigee: 326.4861 deg Mean anomaly: 033.5535 deg Mean motion: 14.87226733 rev/day Decay rate: 2.911e-05 rev/day^2 Epoch rev: 30963 Checksum: 309
Satellite: DO-64 Catalog number: 32789 Epoch time: 14016.19951176 Element set: 853 Inclination: 097.7427 deg RA of node: 080.0394 deg Eccentricity: 0.0011876 Arg of perigee: 315.3052 deg Mean anomaly: 111.6669 deg Mean motion: 14.90804529 rev/day Decay rate: 5.840e-05 rev/day^2 Epoch rev: 30983 Checksum: 329
Satellite: CO-66 Catalog number: 32791 Epoch time: 14016.08899502 Element set: 811 Inclination: 097.7240 deg RA of node: 072.9802 deg Eccentricity: 0.0013907 Arg of perigee: 330.1910 deg Mean anomaly: 029.8512 deg Mean motion: 14.85565458 rev/day Decay rate: 2.474e-05 rev/day^2 Epoch rev: 30946 Checksum: 317
Satellite: RS-30 Catalog number: 32953 Epoch time: 14016.67397436 Element set: 564 Inclination: 082.5047 deg RA of node: 295.4272 deg Eccentricity: 0.0019062 Arg of perigee: 124.2494 deg Mean anomaly: 236.0393 deg Mean motion: 12.43041784 rev/day Decay rate: 1.0e-07 rev/day^2 Epoch rev: 25643 Checksum: 290
Satellite: METEOR-M Catalog number: 35865 Epoch time: 14016.72403152 Element set: 173 Inclination: 098.5732 deg RA of node: 068.5704 deg Eccentricity: 0.0002355 Arg of perigee: 157.8832 deg Mean anomaly: 202.2445 deg Mean motion: 14.21905044 rev/day Decay rate: -.00000000 rev/day^2 Epoch rev: 22481 Checksum: 257
Satellite: RS-38 Catalog number: 35869 Epoch time: 14016.71918370 Element set: 123 Inclination: 098.5664 deg RA of node: 068.4132 deg Eccentricity: 0.0004327 Arg of perigee: 166.4728 deg Mean anomaly: 193.6560 deg Mean motion: 14.22172315 rev/day Decay rate: 5.2e-07 rev/day^2 Epoch rev: 22484 Checksum: 304
Satellite: JUGNU Catalog number: 37839 Epoch time: 14016.48831272 Element set: 543 Inclination: 019.9624 deg RA of node: 094.2857 deg Eccentricity: 0.0019026 Arg of perigee: 112.1972 deg Mean anomaly: 007.4559 deg Mean motion: 14.12233362 rev/day Decay rate: 4.55e-06 rev/day^2 Epoch rev: 11708 Checksum: 293
Satellite: SRMSAT Catalog number: 37841 Epoch time: 14016.55658016 Element set: 543 Inclination: 019.9727 deg RA of node: 110.1599 deg Eccentricity: 0.0012064 Arg of perigee: 058.3799 deg Mean anomaly: 058.8940 deg Mean motion: 14.10288810 rev/day Decay rate: 4.04e-06 rev/day^2 Epoch rev: 11692 Checksum: 301
Satellite: RAX-2 Catalog number: 37853 Epoch time: 14016.85874912 Element set: 699 Inclination: 101.7093 deg RA of node: 334.8045 deg Eccentricity: 0.0226415 Arg of perigee: 133.5614 deg Mean anomaly: 285.1896 deg Mean motion: 14.86295068 rev/day Decay rate: 4.216e-05 rev/day^2 Epoch rev: 12015 Checksum: 318
Satellite: AUBIESAT Catalog number: 37854 Epoch time: 14016.83170006 Element set: 683 Inclination: 101.7134 deg RA of node: 336.1382 deg Eccentricity: 0.0225588 Arg of perigee: 131.5314 deg Mean anomaly: 290.8317 deg Mean motion: 14.87274813 rev/day Decay rate: 5.821e-05 rev/day^2 Epoch rev: 12018 Checksum: 283
